sat.trackr.live / text

‹ back to catalog

UNKNOWN

NORAD 82043

UNKNOWN UNKNOWN UNKNOWN

§ Identity

Operator
Country
Launch date
Launch site
Launch vehicle
Mass (kg)
RCS (m²)

External: N2YO · Heavens-Above

§ Orbital elements

Epoch: 2026-05-23T20:21:21.011040Z

Period
100.46 min
Inclination
97.9512°
Eccentricity
0.0227626
Mean motion
14.33448221 rev/d
Perigee alt
617.3 km
Apogee alt
943.2 km
Semi-major
7,158.4 km
B*
2.2570e-4
RAAN
284.2474°
Arg perigee
315.8569°
Mean anomaly
42.4645°
Rev number
59,706

§ Raw data

UNKNOWN1 82043U          26143.84815985  .00000784  00000+0  22570-3 0  99982 82043  97.9512 284.2474 0227626 315.8569  42.4645 14.33448221597069

JSON: /api/v1/satellites/82043 · /tle

For live sub-satellite position, see the globe view (requires WebGL).

§ Visibility from observer

Set your observer location to see the next 7 days of passes ≥ 10°. The values pass through the URL so the page stays shareable.

No JS? Fill the form by hand. The geolocation button needs JavaScript.